Regional Weather Roundup
Issued by NWS

Home | Current Version | Previous Version | Graphics & Text | Print | Product List | Glossary On
Versions: 1 2 3 4 5 6 7 8 9 10 11 12 13 14 15 16 17 18 19 20 21 22 23 24 25 26 27 28 29 30 31 32 33 34 35 36 37 38 39 40 41 42 43 44 45 46 47 48 49 50
000
ASUS43 KMPX 261010
RWRMN
WEATHER ROUNDUP FOR MINNESOTA
NATIONAL WEATHER SERVICE TWIN CITIES/CHANHASSEN MN
500 AM CDT SUN MAR 26 2017


NOTE: "FAIR" INDICATES FEW OR NO CLOUDS BELOW 12,000 FEET WITH NO
SIGNIFICANT WEATHER AND/OR OBSTRUCTIONS TO VISIBILITY. N/A MEANS
CURRENT SKY AND/OR WEATHER CONDITIONS ARE NOT AVAILABLE.

MNZ060>063-068>070-261100-
   Twin Cities Metro

CITY           SKY/WX    TMP DP  RH WIND       PRES   REMARKS
TWIN CITIES    DRIZZLE   37  33  85 E7        29.94F
ST PAUL        LGT RAIN  36  35  96 E7        29.95F
CRYSTAL        LGT RAIN  36  33  89 NE6       29.94F FOG
BLAINE         LGT RAIN  37  37 100 E7        29.94F
LAKEVILLE      CLOUDY    34  34 100 E6        29.93F WCI  29
EDEN PRAIRIE   LGT RAIN  37  34  89 NE8       29.93S
SOUTH ST PAUL  CLOUDY    36  35  96 E6        29.94F
LAKE ELMO      MIX PCPN  36  34  93 E7        29.95F
$$
MNZ001>005-007-008-013>017-022>024-027-028-261100-
   Northwest Minnesota

CITY           SKY/WX    TMP DP  RH WIND       PRES   REMARKS
BEMIDJI        CLOUDY    31  31  97 SE3       30.00S
HALLOCK        PTCLDY    34  32  93 S9        29.96F WCI  26
ROSEAU         CLOUDY    34  28  80 S7        29.98F WCI  28
WARROAD        CLOUDY    32  28  86 CALM      29.99F
THIEF RVR FALL   N/A     33  32  96 MISG        N/A
CROOKSTON      CLOUDY    34  34 100 S5        29.99S WCI  30
FOSSTON        CLOUDY    30  28  93 CALM      29.99F
DETROIT LAKES  CLOUDY    34  32  93 SE3       29.99F
MOORHEAD       CLOUDY    34  32  93 SE3       30.00F FOG
PARK RAPIDS    CLOUDY    33  28  81 CALM      29.98F
MAHNOMEN       CLOUDY    33  30  90 SE3       29.98F
$$
MNZ006-009>011-018-025>026-261100-
   North Central Minnesota

CITY           SKY/WX    TMP DP  RH WIND       PRES   REMARKS
BAUDETTE       CLOUDY    31  28  89 S8        30.00S WCI  23
FLAG ISLAND    CLOUDY    30  28  93 S9        29.99F WCI  22
INTL FALLS     CLOUDY    31  28  89 SE7       30.02F WCI  24
WASKISH        CLOUDY    30  28  93 CALM      30.00F
BIG FORK       LGT SNOW  32  30  93 CALM      30.02S
LONGVILLE      CLOUDY    30  30 100 CALM      29.99F
GRAND RAPIDS   CLOUDY    31  30  96 CALM      30.02F
CRANE LAKE     CLOUDY    30  28  93 CALM      30.06S
ORR            CLOUDY    30  27  86 CALM      30.00S
COOK           CLOUDY    30  28  93 CALM      30.02S
WALKER         CLOUDY    31  31  99 CALM      29.99F FOG
$$
MNZ012-019>021-037-261100-
   Northeast Minnesota

CITY           SKY/WX    TMP DP  RH WIND       PRES   REMARKS
DULUTH         FRZ DRZL  31  31 100 E10       29.99F FOG     WCI  22
ELY            CLOUDY    30  28  93 CALM      30.01F
HIBBING        CLOUDY    30  30 100 E3        30.00F
EVELETH        CLOUDY    32  31  96 CALM      30.01F
DULUTH HARBOR  CLOUDY    34  32  93 NE13      30.04S WCI  25
TWO HARBORS    CLOUDY    34  28  80 NE8       30.00F WCI  27
SILVER BAY     CLOUDY    32  30  93 NE6       30.01F WCI  26
GRAND MARAIS     N/A     35  28  75 NE7       30.06F WCI  29
G MARAIS ARPRT CLOUDY    28  23  80 E6        30.02F WCI  22
$$
MNZ029>031-032-039>041-046>048-054>057-064-261100-
   West Central Minnesota

CITY           SKY/WX    TMP DP  RH WIND       PRES   REMARKS
FERGUS FALLS   CLOUDY    36  30  80 NE3       30.01F
WHEATON        CLOUDY    36  34  93 CALM      29.99S
MORRIS         CLOUDY    37  36  93 E3        29.95F
ALEXANDRIA     CLOUDY    35  30  82 E7        29.96F WCI  29
ELBOW LAKE     CLOUDY    35  33  95 CALM      29.97F
WADENA         CLOUDY    34  28  80 E3        29.97F
GLENWOOD       CLOUDY    36  32  87 NE6       29.96S
APPLETON       CLOUDY    37  36  93 CALM      29.95F FOG
BENSON         CLOUDY    39  34  81 CALM      29.97F
ORTONVILLE     CLOUDY    36  34  93 CALM      29.95F FOG
MADISON        DRIZZLE   37  37 100 N3        29.95F
WILLMAR        CLOUDY    37  36  93 NE5       29.96S
$$
MNZ033>034-036-042>043-049>051-058-059-261100-
   Central Minnesota

CITY           SKY/WX    TMP DP  RH WIND       PRES   REMARKS
ST CLOUD       CLOUDY    35  31  85 NE5       29.96F WCI  31
SAUK CENTRE    CLOUDY    34  31  88 NE6       29.96F WCI  29
PAYNESVILLE      N/A     35  32  88 NE6       29.96F WCI  30
AITKIN         CLOUDY    34  30  86 NE3       29.98F FOG
PINE RIVER     CLOUDY    32  30  93 E3        30.02F
BRAINERD       CLOUDY    33  29  85 NE5       29.99F WCI  29
STAPLES        CLOUDY    32  28  86 CALM      29.98F
LONG PRAIRIE   CLOUDY    32  30  93 N5        29.97F WCI  27
LITTLE FALLS   CLOUDY    34  30  86 CALM      29.98S
LITCHFIELD     DRIZZLE   37  36  93 NE3       29.95F
BUFFALO        RAIN      36  34  92 NE5       29.96S
MAPLE LAKE     DRIZZLE   36  35  97 N5        29.96F
HUTCHINSON     DRIZZLE   37  37  98 N5        29.95F
$$
MNZ037-044-045-052-053-261100-
   East Central Minnesota

CITY           SKY/WX    TMP DP  RH WIND       PRES   REMARKS
PRINCETON      CLOUDY    36  34  93 NE7       29.97F FOG
MORA           MIX PCPN  32  30  93 CALM      29.99F
CAMBRIDGE      MIX PCPN  36  32  87 NE3       29.95S
RUSH CITY      DRIZZLE   33  32  96 NE5       29.97F WCI  28
MOOSE LAKE     MIX PCPN  32  30  93 NE3       29.98F
CLOQUET        CLOUDY    32  30  93 E3        29.99F FOG
MCGREGOR       CLOUDY    32  32 100 NE3       29.99F
$$
MNZ071>073-080-081-089-090-097-098-261100-
   Southwest Minnesota

CITY           SKY/WX    TMP DP  RH WIND       PRES   REMARKS
MONTEVIDEO     CLOUDY    36  36 100 CALM      29.97S
GRANITE FALLS  CLOUDY    38  37  95 N3        29.96S
CANBY          CLOUDY    37  37  99 CALM      29.95F FOG
MARSHALL       CLOUDY    36  35  96 NE5       29.94S
REDWOOD FALLS  CLOUDY    38  35  89 CALM      29.93F FOG
OLIVIA         CLOUDY    36  34  93 NE6       29.93F
PIPESTONE      FOG       36  34  93 CALM      29.90S VSB 1/4
WINDOM         DRIZZLE   36  36 100 N5        29.91S
WORTHINGTON    FOG       35  35 100 NE8       29.90F VSB 1/4 WCI  29
JACKSON        CLOUDY    36  36 100 NE6       29.90F FOG
TRACY          CLOUDY    37  37  99 NE3       29.92S FOG
SLAYTON        FOG       34  34 100 NE6       29.91F VSB 1/2 WCI  29
$$
MNZ065>067-074>077-082>085-091>093-261100-
   South Central Minnesota

CITY           SKY/WX    TMP DP  RH WIND       PRES   REMARKS
NEW ULM        RAIN      36  36 100 NE5       29.92F
ST JAMES       CLOUDY    36  36 100 CALM      29.92F FOG
FAIRMONT       CLOUDY    36  35  96 NE8       29.90F
GLENCOE        DRIZZLE   37  38 100 CALM      29.93F
FARIBAULT      CLOUDY    36  34  93 NE5       29.93S FOG
OWATONNA       CLOUDY    36  34  93 NE7       29.91F FOG
WASECA         CLOUDY    34  32  93 NE9       29.92S WCI  26
ALBERT LEA     DRZL/FOG  36  36 100 NE6       29.89S VSB 1/2
$$
MNZ078>079-086>088-094>096-261100-
   Southeast Minnesota

CITY           SKY/WX    TMP DP  RH WIND       PRES   REMARKS
ROCHESTER      FOG       34  34 100 NE7       29.90F VSB 1/2 WCI  28
RED WING       CLOUDY    36  34  93 E6        29.94S FOG
STANTON        CLOUDY    36  34  92 E7        29.92S FOG
DODGE CENTER   SNOW      34  34 100 NE12      29.90S VSB 1/4 WCI  25
WINONA         CLOUDY    36  34  93 NE5       29.94S
AUSTIN         CLOUDY    36  34  93 NE6       29.89S FOG
PRESTON        LGT RAIN  34  33  97 NE5       29.90S WCI  30
$$
ABBREVIATIONS USED IN REMARKS
   TC - TEMPERATURES IN CELSIUS
  WCI - WIND CHILL INDEX
   HX - HEAT INDEX
  VSB - VISIBILITY
$$




USA.gov is the U.S. government's official web portal to all federal, state and local government web resources and services.